User: anonymous   Login
Location: ??? ???
(33.4974°N, 35.4618°E)
Time: 16:13:13
(UTC+00:00)
Language:

CSL-04 Rocket - Orbit

View from above orbital plane
View from above orbital plane
View from above satellite
View from above satellite

Ground track
Ground track

The orbit data is extracted from the following two-line orbital elements,

1 25732U 99025C   21016.84940400 -.00000039  00000-0  29385-5 0  9998
2 25732  98.9224  52.8134 0036711 323.4594 209.8032 14.17687082122054
Epoch (UTC): 16 January 2021 20:23:08
Eccentricity: 0.0036711
inclination: 98.9224°
perigee height: 807 km
apogee height: 859 km
right ascension of ascending node: 52.8134°
argument of perigee: 323.4594°
revolutions per day: 14.17687082
mean anomaly at epoch: 209.8032°
orbit number at epoch: 12205

The dashed part of the orbit path shows where the satellite is in the earth's shadow,  

DLR